Flag for Greenland Weather past 2 weeks in Nuuk, Greenland

Now
18 °F

Snow flurries. Partly sunny.


Feels Like: 7 °F
Forecast: 16 / 28 °F
Wind: 8 mph from Northwest

Location: Godthaab / Nuuk

Current Time: Jan 31, 2015 at 10:26:58 AM

Latest Report: Jan 31, 2015 at 9:50 AM


Visibility: 1 mi

Pressure: 29.83 "Hg

Humidity: 93%

Dew point: 16 °F

Location of NuukLocation

Historic Weather in Nuuk — Graph

°F

Nuuk temperature yesterday

Maximum temperature yesterday: 27 °F (at 12:50 AM)
Minimum temperature yesterday: 18 °F (at 5:50 AM)
Average temperature yesterday: 21 °F

Past Weeks' High & Low Weather Summary

 TemperatureHumidityPressure
High37 °F (Jan 17, 9:50 PM)100% (Jan 18, 2:50 AM)30.15 "Hg (Jan 18, 2:50 AM)
Low3 °F (Jan 22, 1:50 PM)35% (Jan 29, 12:50 PM)28.62 "Hg (Jan 26, 11:50 AM)
Average13 °F71%29.59 "Hg
* Reported Jan 16 8:50 AM — Jan 31 8:50 AM, Nuuk, Weather by CustomWeather, © 2014

Note: Actual official high and low records may vary slightly from our data, if they occured in-between our weather recording intervals... More about our weather records

Advertising

Nuuk weather history for previous 24 hours

 ConditionsComfort  
Time TempWeatherWind HumidityBarometerVisibility
8:50 AM
Jan 31
18 °FSnow showers. Ice fog.1 mph93%29.80 "Hg1 mi
7:50 AM19 °FSnow showers. Ice fog.8 mph93%29.80 "Hg1 mi
6:50 AM19 °FSnow. Passing clouds.13 mph93%29.80 "Hg1 mi
5:50 AM23 °FLight snow. Low clouds.16 mph93%29.77 "Hg1 mi
4:50 AM27 °FHeavy snow. Ice fog.38 mph93%29.68 "Hg0 mi
3:50 AM25 °FHeavy snow. Ice fog.44 mph100%29.68 "Hg0 mi
2:50 AM27 °FHeavy snow. Ice fog.52 mph86%29.68 "Hg0 mi
1:50 AM27 °FHeavy snow. Ice fog.48 mph86%29.74 "Hg0 mi
12:50 AM27 °FHeavy snow. Ice fog.44 mph86%29.77 "Hg0 mi
11:50 PM
Jan 30
25 °FLight snow. Passing clouds.18 mph69%29.80 "Hg2 mi
10:50 PM25 °FLight snow. Passing clouds.22 mph63%29.86 "Hg1 mi
9:50 PM23 °FLight snow. Overcast.22 mph74%29.89 "Hg1 mi
8:50 PM21 °FHeavy snow. Passing clouds.26 mph93%29.92 "Hg1 mi
7:50 PM21 °FSnow flurries. Overcast.24 mph86%29.95 "Hg1 mi
6:50 PM21 °FSnow flurries. Overcast.16 mph74%29.98 "Hg2 mi
5:50 PM19 °FSnow flurries. Overcast.17 mph79%29.98 "Hg2 mi
4:50 PM19 °FSnow showers. Overcast.17 mph86%30.01 "Hg2 mi
3:50 PM19 °FSnow flurries. Mostly cloudy.15 mph79%30.01 "Hg2 mi
2:50 PM19 °FSnow. Overcast.15 mph79%30.01 "Hg2 mi
1:50 PM19 °FSnow flurries. Overcast.12 mph79%30.01 "HgN/A
12:50 PM19 °FSnow flurries. Overcast.15 mph68%30.04 "HgN/A
10:50 AM19 °FLight snow. Overcast.16 mph73%30.01 "HgN/A
Weather by CustomWeather, © 2014

See weather overviewHow to use our weather pages